| time (UTC) | temp C | wind direction | speed KPH | gust KPH | rain 1hr cm | rain 24hr cm | rain mn cm | humidity % | barometer mb |
| 20260906192004 | 24 | 174 | 9.7 | 12.9 | 0.00 | 0.00 | 0.00 | 86 | 1016.9 |
| 20260906181003 | 24 | 184 | 1.6 | 8.0 | 0.00 | 0.00 | 0.00 | 92 | 1016.9 |
| 20260906173005 | 24 | 166 | 9.7 | 16.1 | 0.00 | 0.00 | 0.00 | 90 | 1017.2 |
| 20260906172004 | 24 | 178 | 9.7 | 22.5 | 0.00 | 0.00 | 0.00 | 91 | 1017.5 |
| 20260906170004 | 24 | 169 | 6.4 | 12.9 | 0.00 | 0.00 | 0.00 | 91 | 1017.2 |
| 20260906163004 | 23 | 166 | 3.2 | 11.3 | 0.00 | 0.00 | 0.00 | 91 | 1016.8 |
| 20260906151004 | 23 | 151 | 8.0 | 19.3 | 0.00 | 0.00 | 0.00 | 94 | 1017.3 |
| 20260906144004 | 22 | 165 | 3.2 | 4.8 | 0.00 | 0.00 | 0.00 | 94 | 1016.9 |
| 20260906142004 | 22 | 151 | 0.0 | 0.0 | 0.00 | 0.00 | 0.00 | 94 | 1016.9 |
| 20260906141003 | 22 | 159 | 1.6 | 6.4 | 0.00 | 0.00 | 0.00 | 94 | 1016.8 |
| 20260906131005 | 22 | 165 | 4.8 | 9.7 | 0.00 | 0.00 | 0.00 | 96 | 1016.9 |
| 20260906130004 | 22 | 159 | 3.2 | 9.7 | 0.00 | 0.00 | 0.00 | 96 | 1016.9 |
| 20260906123004 | 22 | 156 | 6.4 | 9.7 | 0.00 | 0.00 | 0.00 | 96 | 1016.6 |
| 20260906115003 | 22 | 144 | 9.7 | 20.9 | 0.00 | 0.00 | 0.00 | 96 | 1016.2 |
| 20260906114004 | 22 | 144 | 6.4 | 16.1 | 0.00 | 0.00 | 0.00 | 96 | 1016.2 |
| 20260906113003 | 22 | 147 | 0.0 | 4.8 | 0.00 | 0.00 | 0.00 | 96 | 1016.1 |
| 20260906112003 | 22 | 146 | 8.0 | 19.3 | 0.00 | 0.00 | 0.00 | 96 | 1016.3 |
| 20260906104005 | 22 | 153 | 8.0 | 12.9 | 0.00 | 0.00 | 0.00 | 95 | 1016.4 |
| 20260906091003 | 22 | 160 | 3.2 | 11.3 | 0.00 | 0.00 | 0.00 | 95 | 1016.1 |
| 20260906085004 | 22 | 152 | 4.8 | 12.9 | 0.00 | 0.00 | 0.00 | 95 | 1016.1 |
| 20260906080004 | 22 | 141 | 6.4 | 12.9 | 0.00 | 0.00 | 0.00 | 94 | 1016.1 |
| 20260906071004 | 22 | 119 | 1.6 | 6.4 | 0.00 | 0.00 | 0.00 | 94 | 1016.1 |
| 20260906063004 | 22 | 137 | 3.2 | 4.8 | 0.00 | 0.00 | 0.00 | 94 | 1016.3 |
| 20260906061003 | 22 | 121 | 3.2 | 6.4 | 0.00 | 0.00 | 0.00 | 93 | 1016.4 |
| 20260906060004 | 22 | 144 | 4.8 | 9.7 | 0.00 | 0.00 | 0.00 | 94 | 1016.3 |
| 20260906054003 | 23 | 134 | 4.8 | 11.3 | 0.00 | 0.00 | 0.00 | 94 | 1016.4 |
| 20260906045004 | 23 | 93 | 0.0 | 3.2 | 0.00 | 0.00 | 0.00 | 94 | 1016.2 |
| 20260906042004 | 23 | 90 | 0.0 | 0.0 | 0.00 | 0.00 | 0.00 | 94 | 1016.4 |
| 20260906041005 | 24 | 55 | 0.0 | 1.6 | 0.00 | 0.00 | 0.00 | 94 | 1016.3 |
| 20260906040003 | 24 | 87 | 0.0 | 0.0 | 0.00 | 0.00 | 0.00 | 94 | 1016.3 |
| 20260906033003 | 23 | 130 | 1.6 | 6.4 | 0.00 | 0.00 | 0.00 | 94 | 1015.9 |
| 20260906031004 | 23 | 123 | 3.2 | 6.4 | 0.00 | 0.00 | 0.00 | 93 | 1015.6 |
| 20260906024004 | 24 | 124 | 1.6 | 9.7 | 0.00 | 0.00 | 0.00 | 92 | 1015.6 |
| 20260906021002 | 25 | 103 | 0.0 | 0.0 | 0.00 | 0.00 | 0.00 | 91 | 1015.5 |
| 20260906015004 | 25 | 139 | 1.6 | 6.4 | 0.00 | 0.00 | 0.00 | 90 | 1015.4 |
| 20260906012003 | 25 | 142 | 0.0 | 0.0 | 0.00 | 0.00 | 0.00 | 88 | 1015.3 |
| 20260906011004 | 26 | 140 | 1.6 | 4.8 | 0.00 | 0.00 | 0.00 | 88 | 1015.4 |
| 20260906004004 | 26 | 171 | 9.7 | 11.3 | 0.00 | 0.00 | 0.00 | 86 | 1014.9 |
| 20260905234003 | 27 | 146 | 9.7 | 17.7 | 0.00 | 0.00 | 0.00 | 82 | 1014.7 |
| 20260905231003 | 28 | 148 | 12.9 | 20.9 | 0.00 | 0.00 | 0.00 | 80 | 1014.6 |
| 20260905225005 | 28 | 140 | 12.9 | 20.9 | 0.00 | 0.00 | 0.00 | 79 | 1014.5 |
| 20260905223004 | 28 | 132 | 8.0 | 14.5 | 0.00 | 0.00 | 0.00 | 78 | 1014.3 |
| 20260905222006 | 28 | 156 | 16.1 | 24.1 | 0.00 | 0.00 | 0.00 | 76 | 1014.3 |
| 20260905221003 | 28 | 142 | 14.5 | 20.9 | 0.00 | 0.00 | 0.00 | 76 | 1014.4 |
| 20260905220003 | 28 | 126 | 12.9 | 19.3 | 0.00 | 0.00 | 0.00 | 74 | 1014.3 |
| 20260905214005 | 28 | 151 | 11.3 | 24.1 | 0.00 | 0.00 | 0.00 | 71 | 1014.3 |
| 20260905212005 | 28 | 135 | 11.3 | 20.9 | 0.00 | 0.00 | 0.00 | 70 | 1014.4 |
| 20260905210006 | 28 | 116 | 8.0 | 17.7 | 0.00 | 0.00 | 0.00 | 69 | 1014.5 |
| 20260905204004 | 28 | 100 | 11.3 | 19.3 | 0.00 | 0.00 | 0.00 | 69 | 1014.5 |
| 20260905202005 | 28 | 92 | 9.7 | 14.5 | 0.00 | 0.00 | 0.00 | 70 | 1014.5 |
| 20260905194004 | 28 | 131 | 6.4 | 11.3 | 0.00 | 0.00 | 0.00 | 69 | 1014.7 |